User: anonymous   Login
Location: Unspecified
(0.0000°N, 0.0000°E)
Time: 21:25:44
(UTC+00:00)
Language:

Orbcomm A7 (FM11) - Orbit

View from above orbital plane
View from above orbital plane
View from above satellite
View from above satellite

Ground track
Ground track

The orbit data is extracted from the following two-line orbital elements,

1 25114U 97084C   18051.67598857  .00000040  00000-0  59123-4 0  9999
2 25114  45.0161 128.7517 0005110 106.0455 254.0956 14.38682073 56094
Epoch (UTC): 20 February 2018 16:13:25
Eccentricity: 0.0005110
inclination: 45.0161°
perigee height: 759 km
apogee height: 766 km
right ascension of ascending node: 128.7517°
argument of perigee: 106.0455°
revolutions per day: 14.38682073
mean anomaly at epoch: 254.0956°
orbit number at epoch: 5609

The dashed part of the orbit path shows where the satellite is in the earth's shadow,  

DLR